User: anonymous   Login
Location: Newark
(55.7083°N, 13.1992°E)
Time: 01:33:20
(UTC+00:00)
Language:

DIWATA 2B (PO-101) - Orbit

View from above orbital plane
View from above orbital plane
View from above satellite
View from above satellite

Ground track
Ground track

The orbit data is extracted from the following two-line orbital elements,

1 43678U 18084H   20093.80550087 -.00000290  00000-0 -23162-4 0  9997
2 43678  97.8725 212.2623 0011416  69.6210 290.6241 14.91612586 77745
Epoch (UTC): 02 April 2020 19:19:55
Eccentricity: 0.0011416
inclination: 97.8725°
perigee height: 585 km
apogee height: 601 km
right ascension of ascending node: 212.2623°
argument of perigee: 69.6210°
revolutions per day: 14.91612586
mean anomaly at epoch: 290.6241°
orbit number at epoch: 7774

The dashed part of the orbit path shows where the satellite is in the earth's shadow,  

DLR